DW3195 Weather Reports


time (UTC)temp
C
wind
direction
speed
KPH
gust
KPH
rain 1hr
cm
rain 24hr
cm
rain mn
cm
humidity
%
barometer
mb
20260906101005 18 183 0.0 1.6 0.00 0.51 0.00 95 921.2
20260906100005 18 186 1.6 3.2 0.00 0.51 0.00 95 921.2
20260906094504 18 138 0.0 1.6 0.00 0.51 0.00 95 921.2
20260906094005 18 138 1.6 3.2 0.00 0.51 0.00 95 921.2
20260906093504 18 13 1.6 3.2 0.00 0.51 0.00 95 921.2
20260906093004 18 184 0.0 3.2 0.00 0.51 0.00 95 921.2
20260906091004 18 285 0.0 1.6 0.00 0.51 0.00 95 921.1
20260906090504 18 138 0.0 1.6 0.00 0.51 0.00 95 921.0
20260906090004 18 169 0.0 1.6 0.00 0.51 0.00 95 921.0
20260906084504 18 103 1.6 3.2 0.00 0.51 0.00 95 920.7
20260906084004 18 106 3.2 4.8 0.00 0.51 0.00 95 920.7
20260906081004 17 170 0.0 1.6 0.00 0.51 0.00 95 920.4
20260906080004 17 148 1.6 3.2 0.00 0.51 0.00 95 920.4
20260906074004 17 283 0.0 0.0 0.00 0.51 0.00 95 920.4
20260906073504 17 351 0.0 1.6 0.00 0.51 0.00 95 920.3
20260906073004 17 204 0.0 3.2 0.00 0.51 0.00 95 920.3
20260906071004 17 294 1.6 3.2 0.00 0.51 0.00 95 920.5
20260906070004 17 16 0.0 1.6 0.00 0.51 0.00 95 920.6
20260906064504 17 108 0.0 1.6 0.00 0.51 0.00 95 920.5
20260906063505 17 204 0.0 3.2 0.00 0.51 0.00 95 920.7
20260906063006 17 14 1.6 3.2 0.00 0.51 0.00 95 920.5
20260906054505 17 237 0.0 1.6 0.00 0.51 0.00 95 920.6
20260906054005 17 337 0.0 0.0 0.00 0.51 0.00 95 920.6
20260906053506 17 337 0.0 0.0 0.00 0.51 0.00 95 920.6
20260906053006 17 337 0.0 1.6 0.00 0.51 0.00 95 920.6
20260906051505 17 172 0.0 0.0 0.00 0.51 0.00 95 920.6
20260906051006 17 172 0.0 0.0 0.00 0.51 0.00 95 920.6
20260906050505 17 172 0.0 1.6 0.00 0.51 0.00 95 920.8
20260906050007 17 145 0.0 1.6 0.00 0.51 0.00 95 920.9
20260906044005 17 150 0.0 1.6 0.23 0.51 0.00 95 920.9
20260906043505 18 179 0.0 1.6 0.23 0.51 0.00 95 920.9
20260906043005 18 202 0.0 1.6 0.23 0.51 0.00 95 920.8
20260906041005 18 101 0.0 1.6 0.23 0.51 0.00 95 920.7
20260906040505 18 284 0.0 1.6 0.23 0.51 0.00 95 920.8
20260906040005 18 52 0.0 1.6 0.00 1.04 0.00 95 921.0
20260906034505 18 232 0.0 0.0 0.00 1.04 0.23 95 921.2
20260906034005 18 232 0.0 0.0 0.00 1.04 0.23 95 921.3
20260906033505 18 343 0.0 1.6 0.00 1.04 0.23 95 921.6
20260906033005 18 148 0.0 1.6 0.00 1.04 0.23 95 921.7
20260906031504 19 357 1.6 1.6 0.00 1.04 0.23 95 922.4
20260906031005 19 309 0.0 1.6 0.00 1.04 0.23 95 922.6
20260906030005 19 150 0.0 1.6 0.00 1.04 0.23 95 922.9
20260906024505 19 121 0.0 3.2 0.00 1.04 0.23 95 923.2
20260906024005 20 30 1.6 3.2 0.00 1.04 0.23 95 923.1
20260906023505 20 170 0.0 1.6 0.00 1.04 0.23 95 923.3
20260906023005 20 151 0.0 3.2 0.00 1.04 0.23 95 923.3
20260906021504 20 15 0.0 1.6 0.00 1.04 0.23 94 922.9
20260906021005 20 247 0.0 1.6 0.00 1.04 0.23 94 923.0
20260906020505 20 74 1.6 1.6 0.00 1.04 0.23 94 923.0
20260906020004 20 80 0.0 1.6 0.00 1.04 0.23 94 923.1
20260906014505 20 66 0.0 1.6 0.00 1.04 0.23 94 923.6
20260906014004 20 187 0.0 1.6 0.00 1.04 0.23 94 923.6
20260906013504 20 152 1.6 3.2 0.00 1.04 0.23 94 923.4
20260906013006 20 147 1.6 4.8 0.00 1.04 0.23 94 923.2
20260906010504 21 181 0.0 1.6 0.00 1.04 0.23 92 922.4
20260906010004 21 136 0.0 3.2 0.00 1.04 0.23 92 922.2
20260906004504 21 153 0.0 3.2 0.00 1.04 0.23 91 921.3
20260906004005 21 119 0.0 1.6 0.00 1.04 0.23 90 920.5
20260906003005 21 121 0.0 1.6 0.00 1.04 0.23 89 918.9
20260906001505 22 155 0.0 1.6 0.00 1.04 0.23 87 916.0
20260906001005 22 55 0.0 1.6 0.00 1.04 0.23 87 915.5
20260906000004 22 68 0.0 4.8 0.00 1.04 0.23 84 913.2
20260905234004 23 131 1.6 3.2 0.00 1.04 0.23 81 911.2
20260905233504 24 117 1.6 4.8 0.00 1.04 0.23 79 911.1
20260905233004 24 35 1.6 4.8 0.00 1.04 0.23 79 911.3
20260905231504 25 315 1.6 4.8 0.00 1.04 0.23 81 911.0
20260905231004 25 347 0.0 3.2 0.00 1.04 0.23 79 911.4
20260905230504 25 32 0.0 3.2 0.00 1.04 0.23 77 912.1
20260905224504 26 191 0.0 1.6 0.00 1.04 0.23 74 915.7
20260905224004 26 254 0.0 1.6 0.00 1.04 0.23 72 916.8
20260905223504 27 171 1.6 3.2 0.00 1.04 0.23 72 917.5
20260905223004 27 239 0.0 4.8 0.00 1.04 0.23 71 918.3
20260905221504 28 354 0.0 4.8 0.00 1.04 0.23 63 923.1
20260905221004 28 303 3.2 4.8 0.00 1.04 0.23 64 922.5
20260905220503 28 15 3.2 4.8 0.00 1.04 0.23 61 923.6
20260905220004 29 246 3.2 8.0 0.00 1.07 0.23 61 923.4
20260905214504 29 267 4.8 8.0 0.00 1.07 0.23 58 923.8
20260905214004 29 316 1.6 9.7 0.00 1.07 0.23 57 924.0
20260905213506 29 344 3.2 8.0 0.00 1.07 0.23 58 924.0
20260905213006 29 19 1.6 11.3 0.00 1.07 0.23 57 924.0
20260905211505 28 118 1.6 4.8 0.00 1.07 0.23 57 923.9
20260905211005 28 243 3.2 8.0 0.00 1.07 0.23 59 923.8
20260905210005 29 257 4.8 11.3 0.00 1.07 0.23 58 923.8
20260905204505 29 260 3.2 9.7 0.00 1.07 0.23 59 923.6
20260905204005 28 278 1.6 9.7 0.00 1.07 0.23 62 921.3
20260905203505 28 248 3.2 8.0 0.00 1.07 0.23 60 921.0
20260905203005 28 290 3.2 11.3 0.00 1.22 0.23 60 923.2
20260905201505 28 74 3.2 11.3 0.00 1.80 0.23 59 923.6
20260905201005 27 324 3.2 8.0 0.00 1.80 0.23 62 922.9
20260905200005 27 203 6.4 12.9 0.00 1.80 0.23 62 923.3
20260905194505 27 195 3.2 9.7 0.00 1.80 0.23 63 923.4
20260905194005 27 261 4.8 9.7 0.00 1.80 0.23 66 921.1
20260905193505 27 162 4.8 9.7 0.00 1.80 0.23 65 923.0
20260905193005 27 266 4.8 14.5 0.00 1.80 0.23 64 922.0
20260905191005 27 281 6.4 11.3 0.00 1.80 0.23 67 914.7
20260905190505 26 237 4.8 11.3 0.00 1.80 0.23 70 914.9
20260905190005 26 141 4.8 16.1 0.05 1.80 0.23 68 921.1
20260905184505 26 250 6.4 14.5 0.05 1.80 0.23 68 916.3
20260905183505 26 331 6.4 14.5 0.05 1.80 0.23 70 920.5
20260905183005 26 326 4.8 16.1 0.05 1.80 0.23 72 917.2
20260905181005 25 277 6.4 12.9 0.05 1.80 0.23 76 911.8
20260905180504 24 235 8.0 12.9 0.05 1.80 0.23 75 912.7
20260905180004 24 241 6.4 11.3 0.00 1.75 0.20 79 911.5
20260905174504 23 270 0.0 4.8 0.00 1.75 0.20 86 911.8
20260905174005 23 216 3.2 8.0 0.00 1.75 0.20 84 911.4
20260905173505 22 257 3.2 4.8 0.00 1.75 0.20 85 912.4
20260905171504 21 337 3.2 8.0 0.13 1.75 0.20 86 912.3
20260905171004 21 287 3.2 8.0 0.15 1.75 0.20 89 913.3
20260905170004 20 2 4.8 11.3 0.18 1.75 0.20 90 915.3
20260905164005 20 291 4.8 8.0 0.20 1.75 0.20 93 920.6
20260905163505 21 321 4.8 11.3 0.23 1.75 0.23 93 920.8
20260905163005 21 268 3.2 8.0 0.23 1.75 0.23 93 920.8
20260905161504 21 268 3.2 8.0 0.08 1.60 0.08 92 919.4
20260905161005 21 284 3.2 9.7 0.05 1.57 0.05 91 919.0
20260905160505 21 241 3.2 8.0 0.03 1.55 0.03 91 918.9
20260905160005 21 206 3.2 9.7 0.00 1.52 0.00 91 918.5
20260905154504 22 40 0.0 1.6 0.00 1.52 0.00 90 916.8
20260905153504 22 253 0.0 3.2 0.00 1.52 0.00 89 915.0
20260905153005 22 180 1.6 8.0 0.00 1.52 0.00 88 914.3
20260905151505 23 282 3.2 9.7 0.00 1.52 0.00 87 914.0
20260905151004 23 249 1.6 8.0 0.00 1.52 0.00 87 913.9
20260905150504 23 128 1.6 8.0 0.00 1.52 0.00 86 912.9
20260905150004 23 122 1.6 19.3 0.00 1.52 0.00 86 912.7
20260905144504 26 312 9.7 20.9 0.00 1.52 0.00 81 915.0
20260905144004 26 253 6.4 16.1 0.00 1.52 0.00 78 916.0
20260905143504 26 257 1.6 8.0 0.00 1.52 0.00 81 913.6
20260905143004 26 239 4.8 9.7 0.00 1.52 0.00 81 913.9
20260905141504 25 205 3.2 9.7 0.00 1.52 0.00 85 911.8
20260905141005 25 185 3.2 8.0 0.00 1.52 0.00 86 911.8
20260905140005 23 247 3.2 9.7 0.00 1.52 0.00 90 912.8
20260905134504 23 217 3.2 8.0 0.00 1.52 0.00 95 918.1
20260905134005 22 183 3.2 8.0 0.00 1.52 0.00 96 919.5
20260905133504 22 228 3.2 8.0 0.00 1.52 0.00 94 920.3
20260905131503 21 256 0.0 3.2 0.00 1.52 0.00 96 924.0
20260905131004 21 189 0.0 3.2 0.00 1.52 0.00 96 924.0
20260905130504 21 206 0.0 3.2 0.00 1.52 0.00 96 924.0
20260905130004 21 186 1.6 3.2 0.00 1.52 0.00 96 924.0
20260905124503 19 224 0.0 3.2 0.00 1.52 0.00 95 923.0
20260905123503 18 223 1.6 3.2 0.00 1.52 0.00 95 922.5
20260905123005 18 264 0.0 3.2 0.00 1.52 0.00 95 922.4
20260905121506 18 153 0.0 3.2 0.00 1.52 0.00 95 921.9
20260905121005 18 181 0.0 3.2 0.00 1.52 0.00 95 921.8
20260905120006 17 175 1.6 3.2 0.00 1.52 0.00 95 921.6
20260905114006 17 315 0.0 3.2 0.00 1.52 0.00 95 921.4
20260905113505 17 97 0.0 1.6 0.00 1.52 0.00 95 921.4
20260905113005 17 84 0.0 3.2 0.00 1.52 0.00 95 921.4
20260905111505 17 350 0.0 3.2 0.00 1.52 0.00 95 921.1
20260905110006 17 329 0.0 3.2 0.00 1.52 0.00 95 921.0
20260905104005 17 80 0.0 1.6 0.00 1.52 0.00 95 921.1
20260905103506 17 204 0.0 1.6 0.00 1.52 0.00 95 921.1
20260905103005 17 39 0.0 1.6 0.00 1.52 0.00 95 921.2
20260905101505 17 170 0.0 1.6 0.00 1.52 0.00 95 921.2